Overview Statistics Trail Chart Weather Telemetry Raw packets
 

This is the latest recevied weather packets stored in our database for station/object W4SNA-3. If no packets are shown the sender has not sent any weather packets the latest 10 day(s).

<< 46 47 48 49 50 51 52 >>
Time Temp. Humidity Pressure Rain* Wind** Luminosity Snow
1788288505 30° C 63% 1021.7 hPa 0 mm - - -
1788288205 30° C 64% 1021.8 hPa 0 mm - - -
1788287905 30° C 65% 1021.7 hPa 0 mm - - -
1788287607 30° C 63% 1021.9 hPa 0 mm - - -
1788287305 30° C 62% 1022 hPa 0 mm - - -
1788287005 30° C 62% 1021.9 hPa 0 mm - - -
1788286705 30° C 64% 1021.9 hPa 0 mm - - -
1788286405 30° C 63% 1021.9 hPa 0 mm - - -
1788285906 30° C 65% 1021.9 hPa 0 mm - - -
1788285606 30° C 66% 1021.8 hPa 0 mm - - -
1788285306 29.44° C 65% 1021.8 hPa 0 mm - - -
1788285006 29.44° C 63% 1021.9 hPa 0 mm - - -
1788284709 29.44° C 65% 1021.9 hPa 0 mm - - -
1788284406 29.44° C 66% 1021.9 hPa 0 mm - - -
1788283824 29.44° C 63% 1022 hPa 0 mm - - -
1788283593 29.44° C 65% 1022.1 hPa 0 mm - - -
1788283224 29.44° C 66% 1022.2 hPa 0 mm - - -
1788282924 29.44° C 68% 1022.2 hPa 0 mm - - -
1788282624 29.44° C 64% 1022.2 hPa 0 mm - - -
1788282295 29.44° C 65% 1022.3 hPa 0 mm - - -
1788281995 29.44° C 66% 1022.4 hPa 0 mm - - -
1788281695 29.44° C 64% 1022.3 hPa 0 mm - - -
1788281395 29.44° C 65% 1022.3 hPa 0 mm - - -
1788281095 29.44° C 66% 1022.4 hPa 0 mm - - -
1788280795 29.44° C 65% 1022.6 hPa 0 mm - - -

* Rain latest hour (hover to see other rain measurements)
** Current wind speed in m/s (hover to see current wind gust speed)